Previsão horária em Semyhory

Hoje, 28 Novembro, Sábado

Tempo Temperatura Precipitação Vento Pressão Humidade
00:00 +3°C° 0.2 mm 2 m/s 747 mmHg 86%
01:00 +3°C° 0.2 mm 2 m/s 747 mmHg 89%
02:00 +3°C° 0 mm 2 m/s 746 mmHg 95%
03:00 +4°C° 0.6 mm 1 m/s 746 mmHg 95%
04:00 +4°C° 0.6 mm 1 m/s 746 mmHg 96%
05:00 +4°C° 0.6 mm 1 m/s 746 mmHg 96%
06:00 +4°C° 0.3 mm 1 m/s 746 mmHg 96%
07:00 +4°C° 0.3 mm 1 m/s 746 mmHg 96%
08:00 +4°C° 0 mm 1 m/s 746 mmHg 96%
09:00 +4°C° 0.1 mm 1 m/s 746 mmHg 95%
10:00 +4°C° 0.1 mm 1 m/s 746 mmHg 94%
11:00 +4°C° 0.1 mm 1 m/s 746 mmHg 93%
12:00 +4°C° 0 mm 1 m/s 746 mmHg 91%
13:00 +4°C° 0 mm 2 m/s 746 mmHg 90%
14:00 +4°C° 0 mm 2 m/s 745 mmHg 88%
15:00 +4°C° 0 mm 1 m/s 746 mmHg 89%
16:00 +4°C° 0 mm 1 m/s 746 mmHg 90%
17:00 +4°C° 0 mm 1 m/s 746 mmHg 90%
18:00 +4°C° 0 mm 1 m/s 746 mmHg 91%
19:00 +2°C° 0 mm 0 m/s 746 mmHg 91%
20:00 +2°C° 0 mm 0 m/s 746 mmHg 91%
21:00 +2°C° 0 mm 0 m/s 746 mmHg 91%
22:00 +2°C° 0 mm 0 m/s 746 mmHg 90%
23:00 +2°C° 0 mm 0 m/s 746 mmHg 90%

Amanhã, 29 Novembro, Domingo

Tempo Temperatura Precipitação Vento Pressão Humidade
00:00 +2°C° 0 mm 0 m/s 746 mmHg 90%
01:00 +3°C° 0 mm 1 m/s 746 mmHg 90%
02:00 +3°C° 0 mm 1 m/s 746 mmHg 90%
03:00 +2°C° 0 mm 0 m/s 746 mmHg 90%
04:00 +1°C° 0 mm 0 m/s 746 mmHg 91%
05:00 +1°C° 0 mm 0 m/s 746 mmHg 92%
06:00 +1°C° 0 mm 0 m/s 746 mmHg 92%
07:00 +1°C° 0 mm 0 m/s 747 mmHg 93%
08:00 +1°C° 0 mm 0 m/s 747 mmHg 94%
09:00 +2°C° 0.1 mm 0 m/s 747 mmHg 92%
10:00 +2°C° 0.1 mm 0 m/s 747 mmHg 91%
11:00 +2°C° 0.1 mm 0 m/s 747 mmHg 90%
12:00 +2°C° 0.1 mm 0 m/s 747 mmHg 88%
13:00 +2°C° 0.1 mm 0 m/s 748 mmHg 86%
14:00 +3°C° 0.1 mm 0 m/s 748 mmHg 84%
15:00 +3°C° 0 mm 1 m/s 748 mmHg 86%
16:00 +3°C° 0 mm 1 m/s 748 mmHg 89%
17:00 +3°C° 0 mm 1 m/s 748 mmHg 91%
18:00 +3°C° 0 mm 1 m/s 748 mmHg 92%
19:00 +2°C° 0 mm 1 m/s 748 mmHg 93%
20:00 +2°C° 0 mm 1 m/s 749 mmHg 93%
21:00 +1°C° 0 mm 0 m/s 749 mmHg 93%
22:00 +1°C° 0 mm 0 m/s 749 mmHg 93%
23:00 +1°C° 0 mm 0 m/s 749 mmHg 93%

Depois de amanhã, 30 Novembro, Segunda-feira

Tempo Temperatura Precipitação Vento Pressão Humidade
00:00 +2°C° 0.1 mm 1 m/s 749 mmHg 94%
01:00 +2°C° 0.1 mm 1 m/s 749 mmHg 94%
02:00 +2°C° 0.1 mm 1 m/s 749 mmHg 95%
03:00 +1°C° 0.1 mm 2 m/s 749 mmHg 95%
04:00 +1°C° 0.1 mm 2 m/s 749 mmHg 95%
05:00 +1°C° 0.1 mm 2 m/s 749 mmHg 95%
06:00 +1°C° 0.3 mm 2 m/s 749 mmHg 95%
07:00 -1°C° 0.3 mm 2 m/s 749 mmHg 94%
08:00 -1°C° 0.3 mm 2 m/s 749 mmHg 93%
09:00 +1°C° 0.1 mm 2 m/s 749 mmHg 91%
10:00 0°C° 0.1 mm 3 m/s 749 mmHg 89%
11:00 0°C° 0.1 mm 3 m/s 750 mmHg 86%
12:00 0°C° 0.1 mm 3 m/s 750 mmHg 86%
13:00 0°C° 0.1 mm 3 m/s 750 mmHg 85%
14:00 +1°C° 0.1 mm 3 m/s 750 mmHg 85%
15:00 0°C° 0.4 mm 3 m/s 750 mmHg 87%
16:00 0°C° 0.4 mm 3 m/s 750 mmHg 89%
17:00 -1°C° 0.4 mm 3 m/s 750 mmHg 91%
18:00 -1°C° 0.5 mm 3 m/s 751 mmHg 92%
19:00 -1°C° 0.5 mm 3 m/s 751 mmHg 92%
20:00 -2°C° 0.5 mm 4 m/s 751 mmHg 92%
21:00 -2°C° 0.5 mm 4 m/s 751 mmHg 93%
22:00 -2°C° 0.5 mm 4 m/s 751 mmHg 94%
23:00 -2°C° 0.5 mm 4 m/s 752 mmHg 94%

1 Dezembro, Terça-feira

Tempo Temperatura Precipitação Vento Pressão Humidade
00:00 -3°C° 0.4 mm 4 m/s 752 mmHg 94%
01:00 -3°C° 0.4 mm 4 m/s 752 mmHg 94%
02:00 -3°C° 0.4 mm 4 m/s 752 mmHg 94%
03:00 -3°C° 0.1 mm 4 m/s 752 mmHg 94%
04:00 -3°C° 0.1 mm 4 m/s 752 mmHg 93%
05:00 -3°C° 0.1 mm 4 m/s 752 mmHg 93%
06:00 -3°C° 0 mm 4 m/s 752 mmHg 93%
07:00 -4°C° 0 mm 4 m/s 752 mmHg 93%
08:00 -4°C° 0 mm 4 m/s 752 mmHg 92%
09:00 -3°C° 0 mm 4 m/s 752 mmHg 90%
10:00 -3°C° 0 mm 4 m/s 752 mmHg 88%
11:00 -3°C° 0 mm 4 m/s 752 mmHg 86%
12:00 -2°C° 0 mm 4 m/s 752 mmHg 86%
13:00 -2°C° 0 mm 4 m/s 752 mmHg 86%
14:00 -2°C° 0 mm 4 m/s 752 mmHg 85%
15:00 -3°C° 0 mm 4 m/s 752 mmHg 87%
16:00 -2°C° 0 mm 3 m/s 752 mmHg 89%
17:00 -4°C° 0 mm 3 m/s 752 mmHg 92%
18:00 -4°C° 0 mm 3 m/s 752 mmHg 93%
19:00 -4°C° 0 mm 3 m/s 752 mmHg 94%
20:00 -4°C° 0 mm 3 m/s 752 mmHg 95%
21:00 -2°C° 0 mm 3 m/s 752 mmHg 95%
22:00 -2°C° 0 mm 2 m/s 752 mmHg 96%
23:00 -2°C° 0 mm 2 m/s 752 mmHg 96%

2 Dezembro, Quarta-feira

Tempo Temperatura Precipitação Vento Pressão Humidade
00:00 -2°C° 0 mm 2 m/s 752 mmHg 96%
01:00 -2°C° 0 mm 2 m/s 752 mmHg 96%
02:00 -1°C° 0 mm 2 m/s 752 mmHg 96%
03:00 -1°C° 0 mm 2 m/s 752 mmHg 97%
04:00 -1°C° 0 mm 2 m/s 752 mmHg 97%
05:00 +1°C° 0 mm 1 m/s 752 mmHg 97%
06:00 +1°C° 0 mm 1 m/s 752 mmHg 97%
07:00 +1°C° 0 mm 1 m/s 752 mmHg 97%
08:00 +1°C° 0 mm 1 m/s 752 mmHg 97%
09:00 +1°C° 0 mm 1 m/s 752 mmHg 97%
10:00 +1°C° 0 mm 1 m/s 752 mmHg 97%
11:00 -1°C° 0 mm 2 m/s 753 mmHg 97%
12:00 +1°C° 0 mm 1 m/s 752 mmHg 96%
13:00 +2°C° 0 mm 1 m/s 752 mmHg 96%
14:00 +2°C° 0 mm 1 m/s 752 mmHg 96%
15:00 +1°C° 0 mm 1 m/s 752 mmHg 96%
16:00 +1°C° 0 mm 1 m/s 752 mmHg 97%
17:00 +1°C° 0 mm 1 m/s 752 mmHg 97%
18:00 +1°C° 0 mm 1 m/s 752 mmHg 98%
19:00 +1°C° 0 mm 1 m/s 752 mmHg 98%
20:00 +1°C° 0 mm 1 m/s 752 mmHg 98%
21:00 +1°C° 0.1 mm 1 m/s 752 mmHg 98%
22:00 +1°C° 0.1 mm 1 m/s 752 mmHg 98%
23:00 +1°C° 0.1 mm 1 m/s 752 mmHg 98%

3 Dezembro, Quinta-feira

Tempo Temperatura Precipitação Vento Pressão Humidade
00:00 +1°C° 0.1 mm 1 m/s 752 mmHg 98%
01:00 +1°C° 0.1 mm 1 m/s 752 mmHg 98%
02:00 +1°C° 0.1 mm 1 m/s 752 mmHg 98%
03:00 +1°C° 0.1 mm 1 m/s 752 mmHg 98%
04:00 +1°C° 0.1 mm 1 m/s 752 mmHg 98%
05:00 +1°C° 0.1 mm 1 m/s 752 mmHg 98%
06:00 +1°C° 0.2 mm 1 m/s 752 mmHg 98%
07:00 +1°C° 0.2 mm 1 m/s 752 mmHg 98%
08:00 -1°C° 0.2 mm 2 m/s 752 mmHg 98%
09:00 +1°C° 0.1 mm 1 m/s 752 mmHg 98%
10:00 +1°C° 0.1 mm 1 m/s 752 mmHg 98%
11:00 +2°C° 0.1 mm 1 m/s 752 mmHg 98%
12:00 +2°C° 0.1 mm 1 m/s 752 mmHg 98%
13:00 +2°C° 0.1 mm 1 m/s 751 mmHg 98%
14:00 +2°C° 0.1 mm 1 m/s 751 mmHg 98%
15:00 +2°C° 0.1 mm 1 m/s 751 mmHg 98%
16:00 +1°C° 0.1 mm 1 m/s 751 mmHg 98%
17:00 +1°C° 0.1 mm 1 m/s 751 mmHg 98%
18:00 +1°C° 0 mm 1 m/s 750 mmHg 98%
19:00 +1°C° 0 mm 1 m/s 750 mmHg 98%
20:00 +2°C° 0 mm 1 m/s 750 mmHg 98%
21:00 +1°C° 0 mm 1 m/s 750 mmHg 98%
22:00 +1°C° 0 mm 1 m/s 750 mmHg 98%
23:00 +1°C° 0 mm 1 m/s 750 mmHg 98%
Mostrar mais

Necessitamos do seu Consentimento

A Meteoprog e os seus Fornecedores de Serviços podem armazenar e aceder a dados pessoais como cookies, identificadores do dispositivo ou outras tecnologias semelhantes existentes no seu dispositivo e processar estes dados para personalizar conteúdos e anúncios, assim como funcionalidades nas redes sociais e análise de tráfego.

  • Armazenar e/ou aceder a informações no seu dispositivo

    Os cookies, identificadores do dispositivo ou outras informações podem ser armazenados ou acedidos no seu dispositivo, para os fins acima indicados.

  • Anúncios e conteúdos personalizados, medição de anúncios e conteúdos, dados sobre o público-alvo e desenvolvimento de produtos

    Os anúncios e os conteúdos podem ser personalizados com base num perfil. Podem ser adicionados dados adicionais para uma maior personalização dos anúncios e dos conteúdos. A eficácia dos anúncios e dos conteúdos pode ser medida. Podem ser obtidas informações sobre o público que visualizou os anúncios e os conteúdos. Estes dados podem ser usados para desenvolver ou melhorar sistemas, softwares ou a experiência do utilizador.

Ao clicar em "Eu concordo”, permitirá o uso de cookies, identificadores do dispositivo e web beacons mencionados ou outras tecnologias semelhantes. As configurações do navegador do seu dispositivo podem ser alteradas.

Para certos fins, podem ser invocados interesses legítimos ao invés de consentimento. Pode ler mais informação sobre este assunto na nossa Política de Privacidade e Cookies.